Albert Lea, MN

7:25 AM CDT on April 19, 2018 (GMT -0500)
Albert Lea Municipal

Weather History for KAEL - October, 2013

Change the Weather History Date:

Sunday, October 13, 2013

  Actual Average Record
Temperature  
Mean Temperature 48 °F -  
Max Temperature 60 °F 59 °F 78 °F (2000)
Min Temperature 35 °F 37 °F 28 °F (2002)
Degree Days  
Heating Degree Days 18    
Moisture  
Dew Point 32 °F    
Average Humidity 60    
Maximum Humidity 93    
Minimum Humidity 27    
Precipitation  
Precipitation 0.00 in - - ()
Sea Level Pressure  
Sea Level Pressure 30.36 in    
Wind  
Wind Speed 3 mph (WNW)    
Max Wind Speed 8 mph    
Max Gust Speed -    
Visibility 10 miles    
Events      
Averages and records for this station are not official NWS values.
T = Trace of Precipitation, MM = Missing Value Source: NWS Daily Summary

Daily Weather History Graph

Daily Weather History Graph

Search for Another Location

Airport or City:

Astronomy

Oct. 13, 2013 Rise Set
Actual Time 7:25 AM CDT 6:32 PM CDT
Civil Twilight 6:56 AM CDT 7:01 PM CDT
Nautical Twilight 6:23 AM CDT 7:34 PM CDT
Astronomical Twilight 5:50 AM CDT 8:08 PM CDT
Moon 3:33 PM CDT (10/13) 1:26 AM CDT (10/13)
Length of Visible Light 12h 05m
Length of Day
11h 07m
Waxing Gibbous, 69% of the Moon is Illuminated
Oct 13
Waxing Gibbous
Oct 18
Full
Oct 26
Last Quarter
Nov 3
New
Nov 9
First Quarter

Hourly Weather History & Observations

Time (CDT) Temp. Windchill Dew Point Humidity Pressure Visibility Wind Dir Wind Speed Gust Speed Precip Events Conditions
12:11 AM 44.6 °F 43.1 °F 32.0 °F 61% 30.23 in 10.0 mi West 3.5 mph - N/A   Clear
12:30 AM 44.6 °F 43.1 °F 33.8 °F 66% 30.24 in 10.0 mi West 3.5 mph - N/A   Clear
12:51 AM 44.6 °F 43.1 °F 32.0 °F 61% 30.25 in 10.0 mi West 3.5 mph - N/A   Clear
1:10 AM 44.6 °F 43.1 °F 32.0 °F 61% 30.26 in 10.0 mi West 3.5 mph - N/A   Clear
1:30 AM 44.6 °F 42.2 °F 32.0 °F 61% 30.26 in 10.0 mi West 4.6 mph - N/A   Clear
1:51 AM 42.8 °F 40.1 °F 32.0 °F 66% 30.27 in 10.0 mi West 4.6 mph - N/A   Clear
2:10 AM 42.8 °F 40.1 °F 32.0 °F 66% 30.28 in 10.0 mi West 4.6 mph - N/A   Clear
2:30 AM 42.8 °F 40.1 °F 33.8 °F 70% 30.27 in 10.0 mi WNW 4.6 mph - N/A   Clear
2:51 AM 42.8 °F 41.1 °F 33.8 °F 70% 30.28 in 10.0 mi West 3.5 mph - N/A   Clear
3:10 AM 42.8 °F 41.1 °F 33.8 °F 70% 30.28 in 10.0 mi West 3.5 mph - N/A   Clear
3:31 AM 39.2 °F 37.0 °F 32.0 °F 75% 30.29 in 10.0 mi West 3.5 mph - N/A   Clear
3:51 AM 39.2 °F 37.0 °F 33.8 °F 81% 30.30 in 10.0 mi West 3.5 mph - N/A   Clear
4:10 AM 39.2 °F 37.0 °F 32.0 °F 75% 30.30 in 10.0 mi West 3.5 mph - N/A   Clear
4:31 AM 41.0 °F 39.0 °F 32.0 °F 70% 30.31 in 10.0 mi West 3.5 mph - N/A   Clear
4:50 AM 39.2 °F 35.9 °F 32.0 °F 75% 30.32 in 10.0 mi West 4.6 mph - N/A   Clear
5:10 AM 39.2 °F 37.0 °F 32.0 °F 75% 30.33 in 10.0 mi West 3.5 mph - N/A   Clear
5:31 AM 39.2 °F 37.0 °F 32.0 °F 75% 30.34 in 10.0 mi WSW 3.5 mph - N/A   Clear
5:51 AM 39.2 °F - 32.0 °F 75% 30.34 in 10.0 mi Calm Calm - N/A   Clear
6:10 AM 39.2 °F - 32.0 °F 75% 30.34 in 10.0 mi Calm Calm - N/A   Clear
6:31 AM 37.4 °F - 32.0 °F 81% 30.35 in 10.0 mi Calm Calm - N/A   Clear
6:50 AM 37.4 °F - 32.0 °F 81% 30.35 in 10.0 mi Calm Calm - N/A   Clear
7:10 AM 37.4 °F - 32.0 °F 81% 30.36 in 10.0 mi Calm Calm - N/A   Clear
7:30 AM 35.6 °F - 32.0 °F 87% 30.36 in 10.0 mi Calm Calm - N/A   Clear
7:50 AM 37.4 °F - 32.0 °F 81% 30.37 in 10.0 mi Calm Calm - N/A   Clear
8:11 AM 37.4 °F - 33.8 °F 87% 30.38 in 10.0 mi Calm Calm - N/A   Clear
8:30 AM 39.2 °F - 33.8 °F 81% 30.39 in 10.0 mi Calm Calm - N/A   Clear
8:50 AM 42.8 °F - 35.6 °F 76% 30.40 in 10.0 mi Calm Calm - N/A   Clear
9:11 AM 44.6 °F - 35.6 °F 71% 30.40 in 10.0 mi Calm Calm - N/A   Clear
9:30 AM 46.4 °F - 35.6 °F 66% 30.41 in 10.0 mi Calm Calm - N/A   Clear
9:50 AM 48.2 °F - 37.4 °F 66% 30.42 in 10.0 mi Calm Calm - N/A   Clear
10:11 AM 50.0 °F - 37.4 °F 62% 30.42 in 10.0 mi Calm Calm - N/A   Clear
10:30 AM 51.8 °F - 37.4 °F 58% 30.43 in 10.0 mi West 3.5 mph - N/A   Clear
10:50 AM 53.6 °F - 35.6 °F 51% 30.43 in 10.0 mi Calm Calm - N/A   Clear
11:11 AM 55.4 °F - 33.8 °F 44% 30.43 in 10.0 mi NW 3.5 mph - N/A   Clear
11:30 AM 55.4 °F - 30.2 °F 38% 30.43 in 10.0 mi NW 5.8 mph - N/A   Clear
11:50 AM 55.4 °F - 30.2 °F 38% 30.43 in 10.0 mi WNW 8.1 mph - N/A   Clear
12:10 PM 57.2 °F - 30.2 °F 36% 30.43 in 10.0 mi North 6.9 mph - N/A   Clear
12:30 PM 57.2 °F - 30.2 °F 36% 30.42 in 10.0 mi North 6.9 mph - N/A   Clear
12:51 PM 57.2 °F - 30.2 °F 36% 30.41 in 10.0 mi NW 4.6 mph - N/A   Clear
1:10 PM 57.2 °F - 30.2 °F 36% 30.41 in 10.0 mi North 5.8 mph - N/A   Clear
1:30 PM 57.2 °F - 28.4 °F 33% 30.41 in 10.0 mi NNW 4.6 mph - N/A   Clear
1:51 PM 57.2 °F - 26.6 °F 31% 30.39 in 10.0 mi Calm Calm - N/A   Clear
2:10 PM 57.2 °F - 28.4 °F 33% 30.39 in 10.0 mi West 3.5 mph - N/A   Clear
2:30 PM 59.0 °F - 28.4 °F 31% 30.38 in 10.0 mi North 4.6 mph - N/A   Clear
2:51 PM 59.0 °F - 28.4 °F 31% 30.38 in 10.0 mi Calm Calm - N/A   Clear
3:10 PM 59.0 °F - 28.4 °F 31% 30.37 in 10.0 mi NNW 3.5 mph - N/A   Clear
3:30 PM 60.8 °F - 28.4 °F 29% 30.38 in 10.0 mi North 5.8 mph - N/A   Clear
3:51 PM 59.0 °F - 28.4 °F 31% 30.37 in 10.0 mi Calm Calm - N/A   Clear
4:10 PM 60.8 °F - 28.4 °F 29% 30.37 in 10.0 mi Calm Calm - N/A   Clear
4:31 PM 60.8 °F - 28.4 °F 29% 30.38 in 10.0 mi Calm Calm - N/A   Clear
4:50 PM 60.8 °F - 26.6 °F 27% 30.38 in 10.0 mi West 3.5 mph - N/A   Clear
5:10 PM 59.0 °F - 28.4 °F 31% 30.37 in 10.0 mi NNW 3.5 mph - N/A   Clear
5:30 PM 59.0 °F - 28.4 °F 31% 30.38 in 10.0 mi Calm Calm - N/A   Clear
5:50 PM 57.2 °F - 28.4 °F 33% 30.37 in 10.0 mi Calm Calm - N/A   Clear
6:11 PM 55.4 °F - 30.2 °F 38% 30.37 in 10.0 mi Calm Calm - N/A   Clear
6:30 PM 55.4 °F - 28.4 °F 36% 30.37 in 10.0 mi Calm Calm - N/A   Clear
6:50 PM 51.8 °F - 30.2 °F 44% 30.38 in 10.0 mi Calm Calm - N/A   Clear
7:11 PM 48.2 °F - 35.6 °F 62% 30.39 in 10.0 mi Calm Calm - N/A   Clear
7:30 PM 48.2 °F - 35.6 °F 62% 30.38 in 10.0 mi Calm Calm - N/A   Clear
7:50 PM 48.2 °F - 35.6 °F 62% 30.39 in 10.0 mi Calm Calm - N/A   Clear
8:11 PM 46.4 °F - 35.6 °F 66% 30.39 in 10.0 mi Calm Calm - N/A   Clear
8:30 PM 44.6 °F - 35.6 °F 71% 30.39 in 10.0 mi Calm Calm - N/A   Clear
8:50 PM 44.6 °F - 35.6 °F 71% 30.39 in 10.0 mi Calm Calm - N/A   Clear
9:11 PM 42.8 °F - 35.6 °F 76% 30.38 in 10.0 mi Calm Calm - N/A   Clear
9:30 PM 44.6 °F - 37.4 °F 76% 30.38 in 10.0 mi Calm Calm - N/A   Clear
9:50 PM 42.8 °F - 37.4 °F 81% 30.38 in 10.0 mi Calm Calm - N/A   Clear
10:11 PM 41.0 °F - 35.6 °F 81% 30.38 in 10.0 mi Calm Calm - N/A   Clear
10:30 PM 41.0 °F - 35.6 °F 81% 30.38 in 10.0 mi Calm Calm - N/A   Clear
10:50 PM 39.2 °F - 35.6 °F 87% 30.38 in 10.0 mi Calm Calm - N/A   Clear
11:10 PM 39.2 °F - 35.6 °F 87% 30.38 in 10.0 mi Calm Calm - N/A   Clear
11:30 PM 37.4 °F - 35.6 °F 93% 30.38 in 10.0 mi Calm Calm - N/A   Clear
11:51 PM 37.4 °F - 35.6 °F 93% 30.38 in 10.0 mi Calm Calm - N/A   Clear